When you browse on this site, cookies collect data to enhance your experience and personalize the content and advertising you see.
Visit our Privacy Policy to learn more. By continuing to use the site, you agree to this use of cookies and data.

Stündliche Wetter Cauterets

Heute, 4 Juli, Samstag

Zeit Temperatur Niederschläge Wind Luftdruck Luftfeuchtigkeit
00:00 +3°C° 0 mm 1 m/S 586 mmHg 82%
01:00 +3°C° 0 mm 1 m/S 585 mmHg 78%
02:00 +3°C° 0 mm 1 m/S 585 mmHg 73%
03:00 +3°C° 0 mm 1 m/S 585 mmHg 68%
04:00 +3°C° 0 mm 0 m/S 585 mmHg 67%
05:00 +4°C° 0 mm 0 m/S 586 mmHg 67%
06:00 +5°C° 0 mm 0 m/S 587 mmHg 66%
07:00 +7°C° 0 mm 0 m/S 588 mmHg 62%
08:00 +10°C° 0 mm 1 m/S 589 mmHg 58%
09:00 +12°C° 0 mm 1 m/S 590 mmHg 54%
10:00 +13°C° 0 mm 1 m/S 590 mmHg 53%
11:00 +13°C° 0 mm 2 m/S 591 mmHg 52%
12:00 +14°C° 0 mm 2 m/S 591 mmHg 51%
13:00 +15°C° 0 mm 2 m/S 591 mmHg 52%
14:00 +15°C° 0 mm 2 m/S 591 mmHg 54%
15:00 +15°C° 0 mm 2 m/S 591 mmHg 55%
16:00 +14°C° 0 mm 2 m/S 590 mmHg 61%
17:00 +13°C° 0 mm 2 m/S 590 mmHg 67%
18:00 +12°C° 0 mm 2 m/S 589 mmHg 74%
19:00 +9°C° 0 mm 2 m/S 589 mmHg 79%
20:00 +7°C° 0 mm 2 m/S 588 mmHg 84%
21:00 +6°C° 0 mm 2 m/S 587 mmHg 89%
22:00 +6°C° 0 mm 2 m/S 587 mmHg 79%
23:00 +7°C° 0 mm 1 m/S 587 mmHg 68%

Morgen, 5 Juli, Sonntag

Zeit Temperatur Niederschläge Wind Luftdruck Luftfeuchtigkeit
00:00 +7°C° 0 mm 1 m/S 588 mmHg 58%
01:00 +7°C° 0 mm 1 m/S 587 mmHg 58%
02:00 +7°C° 0 mm 1 m/S 587 mmHg 58%
03:00 +7°C° 0 mm 1 m/S 587 mmHg 59%
04:00 +8°C° 0 mm 1 m/S 587 mmHg 62%
05:00 +9°C° 0 mm 1 m/S 588 mmHg 66%
06:00 +9°C° 0 mm 1 m/S 588 mmHg 69%
07:00 +11°C° 0 mm 1 m/S 589 mmHg 64%
08:00 +13°C° 0 mm 1 m/S 590 mmHg 59%
09:00 +15°C° 0 mm 1 m/S 591 mmHg 54%
10:00 +16°C° 0 mm 2 m/S 591 mmHg 53%
11:00 +17°C° 0 mm 2 m/S 591 mmHg 52%
12:00 +18°C° 0 mm 2 m/S 592 mmHg 50%
13:00 +18°C° 0 mm 2 m/S 591 mmHg 52%
14:00 +18°C° 0 mm 2 m/S 591 mmHg 54%
15:00 +18°C° 0 mm 2 m/S 591 mmHg 56%
16:00 +18°C° 0 mm 1 m/S 590 mmHg 62%
17:00 +16°C° 0 mm 1 m/S 590 mmHg 68%
18:00 +15°C° 0 mm 1 m/S 589 mmHg 74%
19:00 +14°C° 0 mm 1 m/S 588 mmHg 80%
20:00 +12°C° 0 mm 1 m/S 588 mmHg 86%
21:00 +10°C° 0 mm 1 m/S 587 mmHg 92%
22:00 +10°C° 0 mm 1 m/S 587 mmHg 93%
23:00 +10°C° 0 mm 1 m/S 587 mmHg 93%

übermorgen, 6 Juli, Montag

Zeit Temperatur Niederschläge Wind Luftdruck Luftfeuchtigkeit
00:00 +9°C° 0 mm 1 m/S 587 mmHg 94%
01:00 +9°C° 0 mm 1 m/S 587 mmHg 94%
02:00 +9°C° 0 mm 1 m/S 586 mmHg 93%
03:00 +9°C° 0 mm 1 m/S 586 mmHg 93%
04:00 +9°C° 0 mm 1 m/S 586 mmHg 93%
05:00 +9°C° 0 mm 1 m/S 586 mmHg 94%
06:00 +9°C° 0 mm 1 m/S 586 mmHg 94%
07:00 +9°C° 0.1 mm 1 m/S 586 mmHg 93%
08:00 +9°C° 0.1 mm 2 m/S 587 mmHg 91%
09:00 +9°C° 0.1 mm 2 m/S 587 mmHg 90%
10:00 +9°C° 0.1 mm 2 m/S 587 mmHg 89%
11:00 +9°C° 0.1 mm 2 m/S 587 mmHg 88%
12:00 +10°C° 0.1 mm 2 m/S 587 mmHg 88%
13:00 +10°C° 0.1 mm 2 m/S 587 mmHg 88%
14:00 +9°C° 0.1 mm 2 m/S 586 mmHg 88%
15:00 +9°C° 0.1 mm 2 m/S 586 mmHg 88%
16:00 +9°C° 0.1 mm 2 m/S 586 mmHg 88%
17:00 +8°C° 0.1 mm 2 m/S 586 mmHg 89%
18:00 +8°C° 0.1 mm 3 m/S 586 mmHg 90%
19:00 +7°C° 0.1 mm 3 m/S 585 mmHg 91%
20:00 +6°C° 0.1 mm 2 m/S 585 mmHg 92%
21:00 +5°C° 0.1 mm 2 m/S 585 mmHg 93%
22:00 +5°C° 0 mm 2 m/S 585 mmHg 94%
23:00 +5°C° 0 mm 2 m/S 585 mmHg 94%

7 Juli, Dienstag

Zeit Temperatur Niederschläge Wind Luftdruck Luftfeuchtigkeit
00:00 +4°C° 0 mm 2 m/S 584 mmHg 95%
01:00 +4°C° 0 mm 2 m/S 584 mmHg 94%
02:00 +5°C° 0 mm 1 m/S 584 mmHg 93%
03:00 +4°C° 0 mm 1 m/S 583 mmHg 92%
04:00 +5°C° 0 mm 1 m/S 584 mmHg 89%
05:00 +5°C° 0 mm 1 m/S 584 mmHg 86%
06:00 +5°C° 0 mm 1 m/S 584 mmHg 83%
07:00 +7°C° 0 mm 1 m/S 585 mmHg 72%
08:00 +8°C° 0 mm 2 m/S 586 mmHg 61%
09:00 +10°C° 0 mm 2 m/S 587 mmHg 50%
10:00 +12°C° 0 mm 2 m/S 587 mmHg 48%
11:00 +13°C° 0 mm 2 m/S 588 mmHg 46%
12:00 +14°C° 0 mm 2 m/S 588 mmHg 44%
13:00 +14°C° 0 mm 2 m/S 588 mmHg 45%
14:00 +15°C° 0 mm 2 m/S 588 mmHg 47%
15:00 +15°C° 0 mm 2 m/S 587 mmHg 49%
16:00 +14°C° 0 mm 2 m/S 587 mmHg 55%
17:00 +12°C° 0 mm 2 m/S 586 mmHg 61%
18:00 +10°C° 0 mm 2 m/S 586 mmHg 67%
19:00 +10°C° 0 mm 1 m/S 585 mmHg 72%
20:00 +8°C° 0 mm 1 m/S 585 mmHg 78%
21:00 +6°C° 0 mm 1 m/S 584 mmHg 83%
22:00 +6°C° 0 mm 1 m/S 584 mmHg 81%
23:00 +6°C° 0 mm 1 m/S 584 mmHg 78%

8 Juli, Mittwoch

Zeit Temperatur Niederschläge Wind Luftdruck Luftfeuchtigkeit
00:00 +6°C° 0 mm 1 m/S 584 mmHg 76%
01:00 +6°C° 0 mm 1 m/S 584 mmHg 75%
02:00 +6°C° 0 mm 1 m/S 584 mmHg 74%
03:00 +6°C° 0 mm 1 m/S 583 mmHg 74%
04:00 +7°C° 0 mm 1 m/S 584 mmHg 71%
05:00 +8°C° 0 mm 1 m/S 584 mmHg 68%
06:00 +9°C° 0 mm 1 m/S 585 mmHg 65%
07:00 +11°C° 0 mm 1 m/S 586 mmHg 59%
08:00 +13°C° 0 mm 1 m/S 587 mmHg 54%
09:00 +15°C° 0 mm 1 m/S 588 mmHg 48%
10:00 +16°C° 0 mm 2 m/S 588 mmHg 47%
11:00 +17°C° 0 mm 2 m/S 589 mmHg 46%
12:00 +18°C° 0 mm 2 m/S 589 mmHg 45%
13:00 +18°C° 0 mm 2 m/S 589 mmHg 46%
14:00 +18°C° 0 mm 2 m/S 589 mmHg 47%
15:00 +18°C° 0 mm 2 m/S 588 mmHg 48%
16:00 +17°C° 0 mm 2 m/S 588 mmHg 54%
17:00 +16°C° 0 mm 1 m/S 587 mmHg 61%
18:00 +15°C° 0 mm 1 m/S 587 mmHg 68%
19:00 +13°C° 0.1 mm 1 m/S 586 mmHg 73%
20:00 +11°C° 0.1 mm 1 m/S 586 mmHg 78%
21:00 +9°C° 0.1 mm 1 m/S 585 mmHg 84%
22:00 +9°C° 0.2 mm 1 m/S 585 mmHg 84%
23:00 +9°C° 0.2 mm 1 m/S 585 mmHg 85%

9 Juli, Donnerstag

Zeit Temperatur Niederschläge Wind Luftdruck Luftfeuchtigkeit
00:00 +9°C° 0.2 mm 1 m/S 585 mmHg 86%
01:00 +9°C° 0.4 mm 1 m/S 585 mmHg 86%
02:00 +8°C° 0.4 mm 0 m/S 585 mmHg 86%
03:00 +8°C° 0.4 mm 0 m/S 585 mmHg 86%
04:00 +8°C° 0.4 mm 0 m/S 586 mmHg 87%
05:00 +8°C° 0.4 mm 0 m/S 586 mmHg 87%
06:00 +10°C° 0.4 mm 1 m/S 586 mmHg 87%
07:00 +11°C° 0.5 mm 1 m/S 587 mmHg 84%
08:00 +12°C° 0.5 mm 1 m/S 588 mmHg 81%
09:00 +13°C° 0.5 mm 1 m/S 588 mmHg 78%
10:00 +14°C° 0.8 mm 1 m/S 589 mmHg 75%
11:00 +14°C° 0.8 mm 1 m/S 589 mmHg 72%
12:00 +15°C° 0.8 mm 1 m/S 589 mmHg 69%
13:00 +15°C° 0.9 mm 1 m/S 589 mmHg 70%
14:00 +15°C° 0.9 mm 1 m/S 589 mmHg 70%
15:00 +15°C° 0.9 mm 1 m/S 588 mmHg 71%
16:00 +14°C° 0.7 mm 1 m/S 588 mmHg 75%
17:00 +13°C° 0.7 mm 1 m/S 588 mmHg 80%
18:00 +12°C° 0.7 mm 1 m/S 587 mmHg 85%
19:00 +11°C° 0.6 mm 1 m/S 587 mmHg 87%
20:00 +10°C° 0.6 mm 1 m/S 587 mmHg 90%
21:00 +9°C° 0.6 mm 1 m/S 586 mmHg 92%
22:00 +8°C° 0.1 mm 1 m/S 586 mmHg 92%
23:00 +8°C° 0.1 mm 1 m/S 586 mmHg 92%
Mehr zeigen